SCP
0 0 0 0 0 0 0 0 0 0 0 0 0 0 0 0 0 0 0 0 0 0 0 0 0 0 0 0 0 0 0 0 0 0 0 0 0 0 0 0 0 0 0 0
-0 0 0 0 0 0 0 -0 0 0 -0 0 0 0 0 0 -0 0 0 0 0 0 0 0 0 0 0 0 0 0 0 0 0 0 0 0 0 0 0 0 0 0 0 0
0 0 0 0 0 0 0 -0 -0 0 -0 0 0 0 0 0 0 0 0 0 0 0 0 0 0 0 0 0 0 0 0 0 0 0 0 0 0 0 0 0 0 0 0 0
0 0 0 0 0 0 0 0 0 0 -0 0 0 0 -0 0 0 0 0 0 0 0 0 0 0 0 0 0 0 0 0 0 0 0 0 0 0 0 0 0 0 0 0 0
0 0 0 0 0 0 0 0 0 0 0 0 0 0 0 0 0 0 0 0 0 0 0 0 0 0 0 0 0 0 0 0 0 0 0 0 0 0 0 0 0 0 0 0
0 0 0 0 0 0 0 0 0 0 0 0 0 0 0 0 0 0 0 0 0 0 0 0 0 0 0 0 0 0 0 0 0 0 0 0 0 0 0 0 0 0 0 0
0 0 0 0 0 0 0 0 0 0 0 0 0 0 0 0 0 0 0 0 0 0 0 0 0 0 0 0 0 0 0 0 0 0 0 0 0 0 0 0 0 0 0 0
0 0 0 0 0 0 0 0 0 0 0 0 0 0 0 0 0 0 0 0 0 0 0 0 0 0 0 0 0 0 0 0 0 0 0 0 0 0 0 0 0 0 0 0
0 0 0 -0 0 0 0 0 -0 -0 0 0 0 0 0 0 0 0 0 0 0 0 0 0 0 0 0 0 0 0 0 0 0 0 0 0 0 0 0 0 0 0 0 0
0 0 -0 -0 -0 -0 -0 -0 -0 -0 0 0 0 0 0 0 0 0 0 0 0 0 0 0 0 0 0 0 0 0 0 0 0 0 0 0 0 0 0 0 0 0 0 0
0 -0 -0 -0 -0 -0 -0 -0 -0 -0 0 0 0 0 0 0 0 0 0 0 0 0 0 0 0 0 0 0 0 0 0 0 0 0 0 0 0 0 0 0 0 0 0 0
0 0 -0 -0 -0 -0 -0 -0 -0 -0 -0 0 0 0 0 0 0 0 0 0 0 0 0 0 0 0 0 0 0 0 0 0 0 0 -0 0 0 0 0 0 0 0 0 -0
0 0 -0 -0 -0 -0 -0 -0 -0 -0 -0 0 0 0 0 0 0 0 0 0 0 0 0 0 0 0 -0 0 0 0 0 0 0 -0 0 0 -0 0 0 0 0 0 -0 -0
0 -0 -0 -0 0 -0 -0 -0 -0 -0 0 0 0 0 0 0 0 0 0 0 0 0 0 0 0 -0 -0 -0 0 0 -0 -0 -0 0 0 -0 0 0 0 0 0 -0 -0 -0
0 0 0 0 0 0 0 0 0 0 0 0 0 0 0 0 0 0 0 0 0 0 0 0 0 -0 -0 0 0 -0 -0 -0 -0 0 -0 0 0 0 0 0 0 -0 -0 -0
-0 -0 0 0 0 -0 -0 0 0 0 0 0 0 0 0 0 0 0 0 0 0 0 0 0 0 0 -0 0 0 -0 -0 0 -0 0 0 0 0 0 0 0 -0 -0 -0 -0
-0 0 0 -0 0 0 0 0 0 0 0 0 0 0 0 0 0 0 0 0 0 0 0 0 0 -0 -0 -0 -0 -0 -0 -0 -0 0 0 0 0 0 0 0 -0 -0 -0 -0
0 0 0 0 0 0 0 0 0 0 0 0 0 0 0 0 0 0 0 0 0 0 0 -0 -0 -0 -0 -0 -0 -0 -0 -0 0 0 0 0 0 0 0 -0 -0 -0 -0 -0
-0 0 0 0 0 0 0 0 0 0 0 0 0 0 0 0 0 0 0 0 0 0 0 0 -0 -0 0 -0 -0 0 0 0 0 0 0 0 0 0 0 0 -0 -0 -0 -0
-0 -0 0 0 0 0 0 0 0 0 0 0 0 0 0 0 -0 -0 -0 -0 -0 0 -0 -0 -0 0 0 -0 -0 0 0 0 0 0 0 0 0 0 0 0 -0 -0 0 -0
-0 -0 -0 0 0 0 0 0 0 0 0 0 0 0 0 -0 -0 -0 -0 -0 -0 -0 -0 -0 -0 -0 -0 0 -0 0 0 0 0 0 0 0 0 0 0 0 0 -0 0 0
-0 -0 -0 -0 -0 0 0 0 0 0 0 0 0 -0 -0 -0 -0 -0 -0 -0 -0 -0 0 0 0 -0 -0 -0 0 0 -0 -0 0 0 0 0 0 0 0 0 0 -0 -0 -0
-0 -0 -0 -0 -0 -0 -0 -0 -0 -0 -0 -0 -0 -0 -0 -0 -0 -0 -0 0 0 0 -0 0 0 -0 0 0 -0 0 0 0 -0 -0 0 0 0 0 0 0 0 0 -0 -0
-0 -0 -0 -0 -0 0 -0 -0 -0 -0 -0 -0 -0 -0 -0 -0 -0 -0 -0 -0 -0 -0 0 -0 0 0 -0 -0 0 0 0 -0 -0 -0 -0 0 0 0 0 0 0 0 0 -0
-0 -0 0 0 0 0 0 0 0 0 -0 -0 -0 -0 -0 -0 0 0 0 0 0 0 0 -0 -0 0 0 0 0 0 0 -0 -0 -0 -0 -0 0 0 0 0 0 0 0 0
0 0 0 0 0 0 0 -0 0 0 -0 -0 -0 -0 0 0 0 0 0 0 0 0 0 0 0 0 0 0 0 0 0 0 0 0 0 -0 -0 -0 0 0 0 0 0 0
0 0 0 0 0 0 0 -0 0 0 0 0 0 0 0 0 0 0 0 0 0 0 0 0 0 0 0 0 0 0 0 0 0 0 0 0 0 0 -0 0 0 0 0 0
Wind_Speed_500mb
24 21 15 35 48 27 16 13 11 14 17 13 2 13 18 27 43 45 37 12 29 30 26 18 11 7 5 9 10 14 20 23 29 34 37 40 40 44 45 51 58 49 43 42
41 34 33 51 27 27 10 23 14 21 24 36 17 16 25 25 51 53 42 34 25 19 15 12 9 8 11 10 12 17 23 24 28 33 35 38 39 40 44 49 46 45 43 44
8 6 19 9 26 34 43 50 43 19 34 35 27 18 32 24 36 41 43 36 29 20 16 12 13 15 14 18 21 24 26 29 31 34 36 37 40 44 48 50 45 42 45 52
15 22 4 3 16 20 18 12 13 5 35 32 38 30 30 30 50 48 32 25 23 19 14 13 15 17 22 24 25 27 29 30 31 35 39 43 49 54 54 47 41 43 50 54
6 7 23 22 15 16 21 16 4 9 16 41 63 68 48 49 45 40 32 25 23 18 14 13 17 23 26 26 26 28 29 32 35 40 46 51 51 50 47 45 39 43 51 52
4 15 11 24 20 13 13 17 16 9 8 37 41 24 21 34 33 31 28 23 21 20 14 16 22 28 29 28 29 27 32 39 43 43 47 51 49 48 46 40 37 42 50 49
10 6 12 21 14 7 14 11 38 40 35 44 33 36 39 33 31 28 24 24 21 20 18 22 31 36 33 31 29 39 40 44 45 44 47 48 47 44 38 41 46 49 51 55
9 13 8 9 15 4 27 36 43 47 49 54 50 40 35 31 28 25 20 17 16 17 20 27 39 41 39 34 37 38 42 43 42 41 44 41 39 39 33 39 42 45 50 58
8 13 22 42 43 52 48 47 44 48 44 42 40 35 30 27 23 20 17 15 15 18 22 23 39 49 52 46 41 39 39 43 39 38 37 34 35 32 32 36 42 45 44 53
17 22 32 44 59 58 53 53 48 44 40 36 33 29 28 23 20 18 16 17 17 19 23 23 33 42 51 52 42 39 42 41 40 35 36 34 33 31 33 36 34 34 43 50
33 33 43 53 52 53 46 47 44 36 35 33 31 29 26 24 21 18 17 18 18 20 22 24 29 36 44 55 53 48 45 41 38 34 31 37 31 30 30 29 29 37 41 41
11 31 41 33 48 46 46 42 38 39 38 33 31 30 27 24 20 18 18 18 19 20 22 25 26 31 40 49 53 59 64 47 38 32 33 35 38 38 27 24 23 21 24 32
23 37 58 52 48 50 45 41 39 38 36 36 32 30 27 25 22 21 18 19 20 21 22 24 26 31 37 42 48 58 68 56 37 33 37 38 39 40 39 30 18 18 26 20
37 61 52 52 47 49 46 42 41 39 35 33 32 28 25 23 21 20 20 18 18 21 23 25 27 31 38 41 44 58 62 62 37 33 32 38 38 36 33 39 39 25 26 30
32 51 56 55 51 46 43 40 39 37 34 31 28 26 23 23 22 21 20 18 19 22 25 26 29 33 40 40 41 48 60 66 42 32 32 36 37 37 35 35 37 37 36 35
54 54 45 50 46 44 40 36 35 33 30 28 27 25 24 23 22 22 22 21 24 28 28 30 31 33 34 36 42 35 53 56 55 43 38 36 39 42 42 40 43 41 47 49
53 56 51 42 43 39 35 33 33 30 28 27 26 23 22 22 23 23 22 21 22 27 29 33 34 31 32 32 39 35 38 51 55 53 51 44 41 43 43 43 45 45 46 45
33 51 40 37 39 36 33 33 34 29 27 26 25 23 22 21 22 21 22 22 21 25 33 37 34 31 34 33 38 35 34 38 49 54 57 53 53 48 45 42 44 46 44 44
44 49 38 40 38 36 31 31 32 29 27 24 22 22 21 19 19 18 18 26 27 29 34 39 35 28 34 41 37 33 35 35 36 43 47 55 58 58 54 50 48 46 46 47
50 46 37 33 31 33 34 30 28 27 24 22 21 20 19 18 18 19 19 27 32 27 30 38 35 33 37 38 37 33 34 35 35 38 40 43 51 58 60 56 54 53 52 50
43 39 40 37 33 30 29 27 27 24 21 18 17 16 15 13 15 18 20 22 31 24 31 36 38 33 39 38 31 34 35 35 35 38 47 44 40 50 50 57 58 57 58 53
39 34 32 32 32 32 29 27 24 22 19 18 16 14 16 16 12 18 25 24 19 24 28 36 37 38 38 34 31 34 36 34 40 51 47 50 50 44 43 49 53 52 55 57
33 33 34 35 35 33 30 27 25 22 21 18 16 13 10 13 12 8 14 29 20 21 24 41 32 36 35 34 31 34 39 40 42 46 47 49 48 49 43 43 43 48 49 53
35 37 36 34 33 31 30 27 25 23 22 21 19 16 17 13 17 17 23 23 22 23 25 42 30 37 32 34 32 30 35 44 37 39 46 44 46 47 49 49 46 50 48 49
37 35 33 31 29 27 27 25 23 21 20 19 18 18 17 16 13 12 13 17 25 22 19 31 37 33 30 30 32 32 32 39 45 40 41 44 43 43 46 46 46 51 50 49
33 30 27 24 24 22 20 19 16 15 12 13 12 12 12 12 12 12 10 18 16 21 20 19 29 28 28 28 28 29 29 32 36 34 36 42 44 42 45 42 42 43 45 50
28 26 24 21 20 17 17 16 12 12 11 8 10 9 9 9 13 11 13 12 14 16 17 17 20 24 24 25 26 26 27 28 36 36 33 33 38 40 44 42 42 43 43 48
Wind_Direction_500mb
224 260 291 245 198 187 177 112 211 217 251 287 108 327 326 122 111 115 123 135 110 103 100 105 92 58 38 12 353 319 309 304 303 302 303 300 295 294 293 290 297 298 293 289
158 151 225 234 181 151 149 216 280 272 241 273 111 88 18 214 157 148 148 141 127 111 93 79 38 7 358 344 322 320 310 311 308 307 301 299 298 298 291 288 293 293 290 287
179 24 3 234 191 167 188 172 200 191 169 166 166 129 182 186 124 120 103 116 98 88 67 37 0 347 347 340 335 332 322 317 318 310 306 298 291 286 283 285 285 287 286 283
148 137 137 180 221 241 211 111 317 89 148 162 145 139 178 106 105 110 106 101 89 73 46 13 351 342 340 338 337 328 321 319 313 310 306 300 292 291 292 291 279 287 285 286
102 185 130 131 145 149 170 165 53 50 106 113 108 87 65 73 85 89 90 88 77 63 41 15 354 337 334 338 329 325 320 314 312 309 305 301 302 302 300 299 278 280 285 293
171 170 127 120 95 82 160 92 58 11 66 120 133 109 101 95 91 87 81 74 69 57 34 5 341 336 342 334 331 320 311 309 310 311 309 308 305 300 303 307 302 298 299 295
223 159 79 83 87 101 180 94 80 74 75 74 73 106 109 101 92 87 79 72 61 48 29 14 354 349 344 338 325 314 317 317 318 315 311 313 311 307 308 308 299 299 302 307
131 99 95 102 132 60 107 101 94 91 95 101 108 112 108 102 93 83 77 66 53 38 18 2 357 357 352 340 326 326 328 328 325 321 321 317 310 306 310 313 314 311 309 307
51 94 78 81 91 105 107 106 101 100 103 110 109 106 101 93 91 85 76 65 47 36 19 8 1 9 6 357 345 337 335 337 335 328 328 326 320 319 316 307 306 306 311 313
95 104 99 88 99 99 103 102 100 94 100 102 104 104 100 98 93 86 74 56 43 33 24 12 352 5 9 3 356 352 347 345 342 333 335 340 330 323 316 315 316 317 317 318
109 93 102 108 106 111 108 104 103 109 107 108 109 107 107 100 91 83 69 50 43 31 20 11 3 351 5 10 9 6 357 351 344 342 346 341 348 346 334 330 319 311 314 317
133 136 113 117 123 121 112 112 114 113 107 105 108 108 105 96 88 80 65 51 42 29 21 13 1 359 358 9 13 14 11 2 357 1 3 3 358 351 353 345 330 321 330 322
122 129 133 130 117 118 120 119 117 112 108 106 103 104 101 95 84 75 61 48 36 26 20 9 6 5 6 7 14 12 9 6 11 18 17 14 12 6 0 28 49 59 12 343
98 126 121 125 124 121 117 117 115 110 107 105 104 101 99 92 80 68 55 45 35 27 21 12 9 13 357 15 24 12 9 7 15 21 22 25 24 19 22 24 26 27 14 356
140 127 129 127 124 122 125 125 119 113 111 106 104 102 97 89 77 66 55 48 41 32 24 16 13 18 355 20 34 1 8 10 20 27 29 30 28 28 31 31 31 30 21 20
133 129 133 133 132 135 133 130 123 119 116 112 106 100 95 89 81 68 56 48 43 31 19 13 14 17 3 32 36 12 358 8 22 30 31 31 31 33 32 34 34 30 27 25
128 132 141 147 140 140 137 134 130 123 119 114 109 105 99 90 80 69 56 44 41 32 19 12 14 21 11 37 43 25 6 357 18 31 36 34 31 33 32 31 30 31 30 32
136 138 138 138 136 132 127 126 125 125 123 118 111 103 95 87 78 66 53 47 38 33 15 15 24 29 27 40 42 26 21 14 5 23 33 37 39 36 35 31 26 24 26 36
127 125 125 131 129 124 121 126 124 126 124 119 111 101 93 83 73 66 45 40 38 30 8 15 22 36 36 39 35 25 27 22 23 9 25 30 39 37 38 36 31 30 26 29
120 127 127 125 127 129 128 126 128 128 125 120 112 100 89 80 71 62 51 34 31 37 358 15 31 47 52 42 32 28 29 25 27 17 25 30 26 32 34 35 34 33 33 30
121 120 121 122 124 125 124 129 131 128 126 121 111 100 88 89 86 63 54 42 15 46 2 22 39 53 56 44 29 28 32 32 19 28 18 31 31 28 21 27 30 29 30 32
122 124 122 120 120 120 121 122 123 123 118 114 108 97 93 73 71 56 38 48 23 48 22 30 42 46 47 43 25 26 31 33 20 24 25 24 27 32 20 29 17 23 24 25
122 123 125 126 123 121 119 117 116 115 111 105 93 81 81 91 65 51 30 14 39 65 33 30 51 47 41 39 36 19 23 27 33 20 21 17 21 25 20 31 15 16 18 19
127 129 126 126 126 123 118 115 113 110 105 93 80 76 84 83 62 34 32 16 40 49 19 17 41 47 38 37 34 33 16 23 32 22 16 15 20 17 18 20 18 13 16 15
132 131 132 131 127 125 123 122 118 113 102 90 77 68 61 60 75 49 48 16 26 61 16 18 17 41 31 35 30 28 30 17 19 27 11 8 13 13 12 17 15 8 9 9
137 139 139 139 135 137 137 139 122 121 109 97 79 68 60 54 54 46 39 42 33 38 44 22 15 32 28 28 29 24 23 20 17 21 17 2 4 8 2 13 12 2 4 1
139 140 134 136 137 141 143 130 126 122 106 96 93 70 56 48 41 48 46 37 35 24 32 34 16 20 28 22 24 22 15 24 4 10 8 2 1 1 355 7 2 358 359 356
Wind_Speed_850mb
24 21 15 35 48 27 16 13 11 14 17 13 2 13 18 27 43 45 37 12 29 30 26 18 11 7 5 9 10 14 20 23 29 34 37 40 40 44 45 51 58 49 43 42
41 34 33 51 27 27 10 23 14 21 24 36 17 16 25 25 51 53 42 34 25 19 15 12 9 8 11 10 12 17 23 24 28 33 35 38 39 40 44 49 46 45 43 44
8 6 19 9 26 34 43 50 43 19 34 35 27 18 32 24 36 41 43 36 29 20 16 12 13 15 14 18 21 24 26 29 31 34 36 37 40 44 48 50 45 42 45 52
15 22 4 3 16 20 18 12 13 5 35 32 38 30 30 30 50 48 32 25 23 19 14 13 15 17 22 24 25 27 29 30 31 35 39 43 49 54 54 47 41 43 50 54
6 7 23 22 15 16 21 16 4 9 16 41 63 68 48 49 45 40 32 25 23 18 14 13 17 23 26 26 26 28 29 32 35 40 46 51 51 50 47 45 39 43 51 52
4 15 11 24 20 13 13 17 16 9 8 37 41 24 21 34 33 31 28 23 21 20 14 16 22 28 29 28 29 27 32 39 43 43 47 51 49 48 46 40 37 42 50 49
10 6 12 21 14 7 14 11 38 40 35 44 33 36 39 33 31 28 24 24 21 20 18 22 31 36 33 31 29 39 40 44 45 44 47 48 47 44 38 41 46 49 51 55
9 13 8 9 15 4 27 36 43 47 49 54 50 40 35 31 28 25 20 17 16 17 20 27 39 41 39 34 37 38 42 43 42 41 44 41 39 39 33 39 42 45 50 58
8 13 22 42 43 52 48 47 44 48 44 42 40 35 30 27 23 20 17 15 15 18 22 23 39 49 52 46 41 39 39 43 39 38 37 34 35 32 32 36 42 45 44 53
17 22 32 44 59 58 53 53 48 44 40 36 33 29 28 23 20 18 16 17 17 19 23 23 33 42 51 52 42 39 42 41 40 35 36 34 33 31 33 36 34 34 43 50
33 33 43 53 52 53 46 47 44 36 35 33 31 29 26 24 21 18 17 18 18 20 22 24 29 36 44 55 53 48 45 41 38 34 31 37 31 30 30 29 29 37 41 41
11 31 41 33 48 46 46 42 38 39 38 33 31 30 27 24 20 18 18 18 19 20 22 25 26 31 40 49 53 59 64 47 38 32 33 35 38 38 27 24 23 21 24 32
23 37 58 52 48 50 45 41 39 38 36 36 32 30 27 25 22 21 18 19 20 21 22 24 26 31 37 42 48 58 68 56 37 33 37 38 39 40 39 30 18 18 26 20
37 61 52 52 47 49 46 42 41 39 35 33 32 28 25 23 21 20 20 18 18 21 23 25 27 31 38 41 44 58 62 62 37 33 32 38 38 36 33 39 39 25 26 30
32 51 56 55 51 46 43 40 39 37 34 31 28 26 23 23 22 21 20 18 19 22 25 26 29 33 40 40 41 48 60 66 42 32 32 36 37 37 35 35 37 37 36 35
54 54 45 50 46 44 40 36 35 33 30 28 27 25 24 23 22 22 22 21 24 28 28 30 31 33 34 36 42 35 53 56 55 43 38 36 39 42 42 40 43 41 47 49
53 56 51 42 43 39 35 33 33 30 28 27 26 23 22 22 23 23 22 21 22 27 29 33 34 31 32 32 39 35 38 51 55 53 51 44 41 43 43 43 45 45 46 45
33 51 40 37 39 36 33 33 34 29 27 26 25 23 22 21 22 21 22 22 21 25 33 37 34 31 34 33 38 35 34 38 49 54 57 53 53 48 45 42 44 46 44 44
44 49 38 40 38 36 31 31 32 29 27 24 22 22 21 19 19 18 18 26 27 29 34 39 35 28 34 41 37 33 35 35 36 43 47 55 58 58 54 50 48 46 46 47
50 46 37 33 31 33 34 30 28 27 24 22 21 20 19 18 18 19 19 27 32 27 30 38 35 33 37 38 37 33 34 35 35 38 40 43 51 58 60 56 54 53 52 50
43 39 40 37 33 30 29 27 27 24 21 18 17 16 15 13 15 18 20 22 31 24 31 36 38 33 39 38 31 34 35 35 35 38 47 44 40 50 50 57 58 57 58 53
39 34 32 32 32 32 29 27 24 22 19 18 16 14 16 16 12 18 25 24 19 24 28 36 37 38 38 34 31 34 36 34 40 51 47 50 50 44 43 49 53 52 55 57
33 33 34 35 35 33 30 27 25 22 21 18 16 13 10 13 12 8 14 29 20 21 24 41 32 36 35 34 31 34 39 40 42 46 47 49 48 49 43 43 43 48 49 53
35 37 36 34 33 31 30 27 25 23 22 21 19 16 17 13 17 17 23 23 22 23 25 42 30 37 32 34 32 30 35 44 37 39 46 44 46 47 49 49 46 50 48 49
37 35 33 31 29 27 27 25 23 21 20 19 18 18 17 16 13 12 13 17 25 22 19 31 37 33 30 30 32 32 32 39 45 40 41 44 43 43 46 46 46 51 50 49
33 30 27 24 24 22 20 19 16 15 12 13 12 12 12 12 12 12 10 18 16 21 20 19 29 28 28 28 28 29 29 32 36 34 36 42 44 42 45 42 42 43 45 50
28 26 24 21 20 17 17 16 12 12 11 8 10 9 9 9 13 11 13 12 14 16 17 17 20 24 24 25 26 26 27 28 36 36 33 33 38 40 44 42 42 43 43 48
Wind_Direction_850mb
224 260 291 245 198 187 177 112 211 217 251 287 108 327 326 122 111 115 123 135 110 103 100 105 92 58 38 12 353 319 309 304 303 302 303 300 295 294 293 290 297 298 293 289
158 151 225 234 181 151 149 216 280 272 241 273 111 88 18 214 157 148 148 141 127 111 93 79 38 7 358 344 322 320 310 311 308 307 301 299 298 298 291 288 293 293 290 287
179 24 3 234 191 167 188 172 200 191 169 166 166 129 182 186 124 120 103 116 98 88 67 37 0 347 347 340 335 332 322 317 318 310 306 298 291 286 283 285 285 287 286 283
148 137 137 180 221 241 211 111 317 89 148 162 145 139 178 106 105 110 106 101 89 73 46 13 351 342 340 338 337 328 321 319 313 310 306 300 292 291 292 291 279 287 285 286
102 185 130 131 145 149 170 165 53 50 106 113 108 87 65 73 85 89 90 88 77 63 41 15 354 337 334 338 329 325 320 314 312 309 305 301 302 302 300 299 278 280 285 293
171 170 127 120 95 82 160 92 58 11 66 120 133 109 101 95 91 87 81 74 69 57 34 5 341 336 342 334 331 320 311 309 310 311 309 308 305 300 303 307 302 298 299 295
223 159 79 83 87 101 180 94 80 74 75 74 73 106 109 101 92 87 79 72 61 48 29 14 354 349 344 338 325 314 317 317 318 315 311 313 311 307 308 308 299 299 302 307
131 99 95 102 132 60 107 101 94 91 95 101 108 112 108 102 93 83 77 66 53 38 18 2 357 357 352 340 326 326 328 328 325 321 321 317 310 306 310 313 314 311 309 307
51 94 78 81 91 105 107 106 101 100 103 110 109 106 101 93 91 85 76 65 47 36 19 8 1 9 6 357 345 337 335 337 335 328 328 326 320 319 316 307 306 306 311 313
95 104 99 88 99 99 103 102 100 94 100 102 104 104 100 98 93 86 74 56 43 33 24 12 352 5 9 3 356 352 347 345 342 333 335 340 330 323 316 315 316 317 317 318
109 93 102 108 106 111 108 104 103 109 107 108 109 107 107 100 91 83 69 50 43 31 20 11 3 351 5 10 9 6 357 351 344 342 346 341 348 346 334 330 319 311 314 317
133 136 113 117 123 121 112 112 114 113 107 105 108 108 105 96 88 80 65 51 42 29 21 13 1 359 358 9 13 14 11 2 357 1 3 3 358 351 353 345 330 321 330 322
122 129 133 130 117 118 120 119 117 112 108 106 103 104 101 95 84 75 61 48 36 26 20 9 6 5 6 7 14 12 9 6 11 18 17 14 12 6 0 28 49 59 12 343
98 126 121 125 124 121 117 117 115 110 107 105 104 101 99 92 80 68 55 45 35 27 21 12 9 13 357 15 24 12 9 7 15 21 22 25 24 19 22 24 26 27 14 356
140 127 129 127 124 122 125 125 119 113 111 106 104 102 97 89 77 66 55 48 41 32 24 16 13 18 355 20 34 1 8 10 20 27 29 30 28 28 31 31 31 30 21 20
133 129 133 133 132 135 133 130 123 119 116 112 106 100 95 89 81 68 56 48 43 31 19 13 14 17 3 32 36 12 358 8 22 30 31 31 31 33 32 34 34 30 27 25
128 132 141 147 140 140 137 134 130 123 119 114 109 105 99 90 80 69 56 44 41 32 19 12 14 21 11 37 43 25 6 357 18 31 36 34 31 33 32 31 30 31 30 32
136 138 138 138 136 132 127 126 125 125 123 118 111 103 95 87 78 66 53 47 38 33 15 15 24 29 27 40 42 26 21 14 5 23 33 37 39 36 35 31 26 24 26 36
127 125 125 131 129 124 121 126 124 126 124 119 111 101 93 83 73 66 45 40 38 30 8 15 22 36 36 39 35 25 27 22 23 9 25 30 39 37 38 36 31 30 26 29
120 127 127 125 127 129 128 126 128 128 125 120 112 100 89 80 71 62 51 34 31 37 358 15 31 47 52 42 32 28 29 25 27 17 25 30 26 32 34 35 34 33 33 30
121 120 121 122 124 125 124 129 131 128 126 121 111 100 88 89 86 63 54 42 15 46 2 22 39 53 56 44 29 28 32 32 19 28 18 31 31 28 21 27 30 29 30 32
122 124 122 120 120 120 121 122 123 123 118 114 108 97 93 73 71 56 38 48 23 48 22 30 42 46 47 43 25 26 31 33 20 24 25 24 27 32 20 29 17 23 24 25
122 123 125 126 123 121 119 117 116 115 111 105 93 81 81 91 65 51 30 14 39 65 33 30 51 47 41 39 36 19 23 27 33 20 21 17 21 25 20 31 15 16 18 19
127 129 126 126 126 123 118 115 113 110 105 93 80 76 84 83 62 34 32 16 40 49 19 17 41 47 38 37 34 33 16 23 32 22 16 15 20 17 18 20 18 13 16 15
132 131 132 131 127 125 123 122 118 113 102 90 77 68 61 60 75 49 48 16 26 61 16 18 17 41 31 35 30 28 30 17 19 27 11 8 13 13 12 17 15 8 9 9
137 139 139 139 135 137 137 139 122 121 109 97 79 68 60 54 54 46 39 42 33 38 44 22 15 32 28 28 29 24 23 20 17 21 17 2 4 8 2 13 12 2 4 1
139 140 134 136 137 141 143 130 126 122 106 96 93 70 56 48 41 48 46 37 35 24 32 34 16 20 28 22 24 22 15 24 4 10 8 2 1 1 355 7 2 358 359 356